Date,TemperatureHighF,TemperatureAvgF,TemperatureLowF,DewpointHighF,DewpointAvgF,DewpointLowF,HumidityHigh,HumidityAvg,HumidityLow,PressureMaxIn,PressureMinIn,WindSpeedMaxMPH,WindSpeedAvgMPH,GustSpeedMaxMPH,PrecipitationSumIn
2013-2-1,34,28,20,25,12,4,87,52,38,30.44,29.85,18,3,26,0.00
2013-2-2,32,25,17,27,14,4,89,65,40,30.45,30.07,12,2,17,0.01
2013-2-3,36,30,25,30,26,17,93,83,55,30.07,29.88,14,1,17,0.01
2013-2-4,38,32,24,24,17,11,65,54,41,30.15,29.94,10,2,20,0.00
2013-2-5,40,36,32,29,26,22,76,67,55,29.99,29.89,5,0,8,0.00
2013-2-6,47,38,31,32,27,22,89,66,45,30.40,29.98,9,2,18,0.00
2013-2-7,38,34,28,29,25,22,80,69,59,30.49,30.26,9,2,12,0.00
2013-2-8,42,37,33,39,32,22,95,84,60,30.25,29.78,17,2,24,0.23
2013-2-9,43,34,29,23,19,16,66,54,38,30.44,29.95,14,3,23,0.00
2013-2-10,46,35,23,28,19,14,81,53,29,30.53,30.29,13,2,16,0.00
2013-2-11,54,46,38,51,42,28,94,89,55,30.29,29.75,10,3,14,0.25
2013-2-12,58,49,40,34,29,27,65,48,32,30.03,29.84,10,2,20,0.00
2013-2-13,46,38,33,36,30,26,95,74,52,30.00,29.69,8,2,12,0.25
2013-2-14,51,40,32,33,30,27,95,70,41,30.07,29.82,10,1,12,0.01
2013-2-15,61,45,35,38,33,30,93,67,32,30.07,29.92,15,2,20,0.13
2013-2-16,40,36,31,35,29,17,95,78,52,30.05,29.88,7,1,11,0.01
2013-2-17,32,28,24,18,12,6,64,51,37,30.26,29.88,16,4,21,0.00
2013-2-18,45,32,21,20,10,6,58,42,25,30.44,30.20,9,2,13,0.00
2013-2-19,46,41,38,42,31,19,90,69,43,30.20,29.76,14,4,22,0.11
2013-2-20,39,33,25,24,16,10,62,49,38,30.21,29.88,15,4,20,0.00
2013-2-21,40,30,24,19,15,10,63,52,39,30.38,30.17,14,2,17,0.00
2013-2-22,34,32,29,31,23,17,95,72,56,30.43,30.26,9,2,12,0.05
2013-2-23,46,39,32,44,37,30,96,95,92,30.26,29.85,6,0,6,0.07
2013-2-24,53,42,32,41,31,19,95,67,36,30.15,29.83,13,2,18,0.00
2013-2-25,49,37,28,26,23,20,76,58,38,30.26,30.14,7,1,10,0.00
2013-2-26,44,37,31,42,32,25,95,83,70,30.27,29.64,21,3,25,0.71
2013-2-27,58,47,39,43,38,34,96,74,46,29.73,29.55,9,2,13,0.02
2013-2-28,49,43,40,38,31,25,89,62,41,29.77,29.67,10,2,16,0.02